IGO1105 VECC-VGHS

Flight info

Callsign IGO1105
Flight time 0h 31m
Altitude 21000
Route BEMAK2C BEMAK A462 IKOGU IKOGU1E
Aircraft A320/M-SDE3FGHIRWY/LB1

Departure

Time 2026-04-29 11:18
Airport Netaji Subhash Chandra Bose International Airport (VECC)

Arrival

Time 2026-04-29 11:50
Airport Hazrat Shahjalal International Airport (VGHS)
Time Latitude Longitude Altitude Speed Heading
2026-04-29 11:00 22.64383 88.44071 29 ft 0 kts 276°
2026-04-29 11:05 22.64381 88.44088 25 ft 2 kts 276°
2026-04-29 11:05 22.64380 88.44107 23 ft 2 kts 276°
2026-04-29 11:05 22.64378 88.44125 23 ft 2 kts 277°
2026-04-29 11:05 22.64371 88.44140 26 ft 2 kts 334°
2026-04-29 11:06 22.64355 88.44148 28 ft 2 kts 334°
2026-04-29 11:06 22.64340 88.44155 23 ft 2 kts 360°
2026-04-29 11:06 22.64338 88.44155 23 ft 0 kts 360°
2026-04-29 11:07 22.64339 88.44155 23 ft 0 kts 360°
2026-04-29 11:07 22.64344 88.44155 26 ft 1 kts
2026-04-29 11:07 22.64353 88.44155 27 ft 1 kts
2026-04-29 11:08 22.64366 88.44157 28 ft 2 kts
2026-04-29 11:08 22.64387 88.44159 25 ft 4 kts
2026-04-29 11:08 22.64417 88.44162 24 ft 5 kts
2026-04-29 11:08 22.64457 88.44167 24 ft 6 kts
2026-04-29 11:09 22.64506 88.44173 25 ft 8 kts
2026-04-29 11:09 22.64564 88.44179 24 ft 9 kts
2026-04-29 11:09 22.64632 88.44187 24 ft 11 kts
2026-04-29 11:09 22.64710 88.44197 24 ft 12 kts
2026-04-29 11:10 22.64795 88.44208 25 ft 13 kts
2026-04-29 11:10 22.64889 88.44218 24 ft 14 kts
2026-04-29 11:10 22.64990 88.44229 25 ft 14 kts
2026-04-29 11:10 22.65055 88.44258 24 ft 11 kts 56°
2026-04-29 11:11 22.65087 88.44336 24 ft 12 kts 67°
2026-04-29 11:11 22.65148 88.44384 24 ft 12 kts
2026-04-29 11:11 22.65237 88.44393 24 ft 13 kts
2026-04-29 11:11 22.65326 88.44403 24 ft 13 kts
2026-04-29 11:12 22.65419 88.44414 24 ft 14 kts
2026-04-29 11:12 22.65516 88.44425 24 ft 14 kts
2026-04-29 11:12 22.65617 88.44437 24 ft 15 kts
2026-04-29 11:12 22.65724 88.44450 24 ft 16 kts
2026-04-29 11:13 22.65841 88.44463 27 ft 18 kts
2026-04-29 11:13 22.65968 88.44453 24 ft 19 kts
2026-04-29 11:13 22.66111 88.44470 24 ft 22 kts
2026-04-29 11:13 22.66272 88.44490 23 ft 24 kts
2026-04-29 11:14 22.66449 88.44509 26 ft 27 kts
2026-04-29 11:14 22.66639 88.44544 23 ft 29 kts 12°
2026-04-29 11:14 22.66839 88.44580 24 ft 30 kts
2026-04-29 11:14 22.67052 88.44604 24 ft 32 kts
2026-04-29 11:15 22.67224 88.44626 24 ft 13 kts 13°
2026-04-29 11:15 22.67285 88.44708 24 ft 15 kts 60°
2026-04-29 11:15 22.67336 88.44818 25 ft 17 kts 76°
2026-04-29 11:15 22.67333 88.44879 26 ft 0 kts 96°
2026-04-29 11:16 22.67333 88.44881 26 ft 0 kts 96°
2026-04-29 11:16 22.67333 88.44885 26 ft 0 kts 96°
2026-04-29 11:17 22.67330 88.44909 27 ft 5 kts 96°
2026-04-29 11:17 22.67325 88.44957 29 ft 8 kts 96°
2026-04-29 11:17 22.67276 88.44993 29 ft 11 kts 186°
2026-04-29 11:17 22.67249 88.44990 29 ft 13 kts 186°
2026-04-29 11:18 22.66665 88.44922 26 ft 107 kts 186°
2026-04-29 11:18 22.65747 88.44815 31 ft 156 kts 186°
2026-04-29 11:18 22.65002 88.44729 288 ft 162 kts 181°
2026-04-29 11:18 22.63890 88.44598 853 ft 164 kts 182°
2026-04-29 11:19 22.62686 88.44499 1169 ft 185 kts 174°
2026-04-29 11:19 22.61513 88.45177 1427 ft 209 kts 128°
2026-04-29 11:19 22.60912 88.46604 2222 ft 211 kts 109°
2026-04-29 11:19 22.60881 88.48219 2951 ft 224 kts 80°
2026-04-29 11:20 22.61606 88.49741 3652 ft 235 kts 55°
2026-04-29 11:20 22.62664 88.51109 4384 ft 238 kts 54°
2026-04-29 11:20 22.63755 88.52460 5136 ft 242 kts 46°
2026-04-29 11:20 22.65165 88.53505 5819 ft 248 kts 27°
2026-04-29 11:21 22.66725 88.54329 6573 ft 250 kts 24°
2026-04-29 11:21 22.68290 88.55131 7386 ft 248 kts 24°
2026-04-29 11:21 22.69845 88.55955 8172 ft 248 kts 24°
2026-04-29 11:21 22.71379 88.56804 9005 ft 247 kts 24°
2026-04-29 11:22 22.72890 88.57669 9833 ft 245 kts 25°
2026-04-29 11:22 22.74246 88.58845 10362 ft 263 kts 48°
2026-04-29 11:22 22.75336 88.60552 10621 ft 288 kts 53°
2026-04-29 11:22 22.76478 88.62445 10846 ft 312 kts 54°
2026-04-29 11:23 22.77707 88.64498 11057 ft 336 kts 55°
2026-04-29 11:23 22.79008 88.66688 11397 ft 353 kts 54°
2026-04-29 11:23 22.80345 88.68951 12042 ft 359 kts 54°
2026-04-29 11:23 22.81701 88.71245 12772 ft 363 kts 54°
2026-04-29 11:24 22.83070 88.73561 13529 ft 367 kts 54°
2026-04-29 11:24 22.84456 88.75904 14198 ft 371 kts 54°
2026-04-29 11:24 22.85858 88.78269 14888 ft 375 kts 54°
2026-04-29 11:24 22.87281 88.80662 15528 ft 379 kts 54°
2026-04-29 11:25 22.88718 88.83080 16155 ft 384 kts 54°
2026-04-29 11:25 22.90169 88.85523 16774 ft 388 kts 55°
2026-04-29 11:25 22.91638 88.87999 17407 ft 392 kts 54°
2026-04-29 11:25 22.93117 88.90493 18037 ft 396 kts 54°
2026-04-29 11:26 22.96137 88.95514 19076 ft 405 kts 53°
2026-04-29 11:26 22.97699 88.98084 19589 ft 410 kts 54°
2026-04-29 11:26 22.99279 89.00681 20092 ft 416 kts 54°
2026-04-29 11:27 23.00882 89.03316 20568 ft 421 kts 54°
2026-04-29 11:27 23.02501 89.05989 20771 ft 425 kts 54°
2026-04-29 11:27 23.04143 89.08706 20813 ft 435 kts 54°
2026-04-29 11:27 23.05807 89.11466 20813 ft 438 kts 54°
2026-04-29 11:28 23.07476 89.14235 20813 ft 439 kts 54°
2026-04-29 11:28 23.09147 89.17009 20812 ft 439 kts 54°
2026-04-29 11:28 23.10817 89.19782 20825 ft 439 kts 54°
2026-04-29 11:28 23.12481 89.22550 20814 ft 438 kts 54°
2026-04-29 11:29 23.14143 89.25317 20815 ft 437 kts 54°
2026-04-29 11:29 23.15803 89.28077 20820 ft 436 kts 54°
2026-04-29 11:29 23.17461 89.30830 20819 ft 435 kts 54°
2026-04-29 11:29 23.19118 89.33585 20820 ft 435 kts 54°
2026-04-29 11:30 23.20775 89.36344 20822 ft 436 kts 54°
2026-04-29 11:30 23.22430 89.39101 20822 ft 436 kts 54°
2026-04-29 11:30 23.24085 89.41866 20830 ft 436 kts 54°
2026-04-29 11:30 23.25736 89.44630 20831 ft 436 kts 54°
2026-04-29 11:31 23.27390 89.47398 20833 ft 436 kts 54°
2026-04-29 11:31 23.29048 89.50165 20837 ft 436 kts 54°
2026-04-29 11:31 23.30704 89.52929 20839 ft 436 kts 54°
2026-04-29 11:31 23.32360 89.55697 20840 ft 436 kts 54°
2026-04-29 11:32 23.34015 89.58466 20840 ft 436 kts 54°
2026-04-29 11:32 23.35669 89.61234 20840 ft 436 kts 54°
2026-04-29 11:32 23.37405 89.63936 20842 ft 434 kts 47°
2026-04-29 11:32 23.39480 89.66295 20804 ft 427 kts 38°
2026-04-29 11:33 23.41729 89.68336 20561 ft 415 kts 36°
2026-04-29 11:33 23.43927 89.70313 20329 ft 405 kts 36°
2026-04-29 11:33 23.46073 89.72246 20092 ft 396 kts 35°
2026-04-29 11:33 23.48178 89.74147 19797 ft 390 kts 35°
2026-04-29 11:34 23.50257 89.76035 19307 ft 389 kts 37°
2026-04-29 11:34 23.52120 89.78178 18807 ft 392 kts 48°
2026-04-29 11:34 23.53615 89.80672 18302 ft 394 kts 55°
2026-04-29 11:34 23.54992 89.83245 17743 ft 392 kts 55°
2026-04-29 11:35 23.56360 89.85795 17230 ft 388 kts 55°
2026-04-29 11:35 23.57718 89.88317 16723 ft 384 kts 55°
2026-04-29 11:35 23.59067 89.90812 16218 ft 381 kts 55°
2026-04-29 11:35 23.60406 89.93289 15710 ft 378 kts 55°
2026-04-29 11:36 23.61735 89.95750 15207 ft 375 kts 56°
2026-04-29 11:36 23.63058 89.98196 14710 ft 373 kts 56°
2026-04-29 11:36 23.64380 90.00617 14223 ft 370 kts 55°
2026-04-29 11:36 23.65741 90.02985 13730 ft 367 kts 54°
2026-04-29 11:37 23.67131 90.05316 13199 ft 365 kts 53°
2026-04-29 11:37 23.68522 90.07612 12700 ft 361 kts 53°
2026-04-29 11:37 23.69903 90.09888 12207 ft 358 kts 53°
2026-04-29 11:37 23.71269 90.12151 11715 ft 356 kts 53°
2026-04-29 11:38 23.72623 90.14400 11238 ft 353 kts 53°
2026-04-29 11:38 23.73945 90.16607 11096 ft 341 kts 53°
2026-04-29 11:38 23.75218 90.18736 10980 ft 329 kts 53°
2026-04-29 11:38 23.76451 90.20798 10854 ft 319 kts 53°
2026-04-29 11:39 23.77666 90.22790 10620 ft 312 kts 49°
2026-04-29 11:39 23.79252 90.24323 10274 ft 302 kts 24°
2026-04-29 11:39 23.81218 90.24961 9937 ft 292 kts 359°
2026-04-29 11:39 23.83194 90.24669 9599 ft 285 kts 336°
2026-04-29 11:40 23.84886 90.23596 9225 ft 281 kts 322°
2026-04-29 11:40 23.86444 90.22345 8831 ft 282 kts 322°
2026-04-29 11:40 23.88030 90.21074 8453 ft 283 kts 322°
2026-04-29 11:40 23.89619 90.19804 8081 ft 283 kts 322°
2026-04-29 11:41 23.91210 90.18537 7757 ft 283 kts 322°
2026-04-29 11:41 23.92806 90.17270 7395 ft 283 kts 322°
2026-04-29 11:41 23.94399 90.16004 7018 ft 284 kts 322°
2026-04-29 11:41 23.96032 90.14700 6293 ft 298 kts 322°
2026-04-29 11:42 23.97744 90.13332 5513 ft 312 kts 322°
2026-04-29 11:42 23.99730 90.12287 4755 ft 327 kts 348°
2026-04-29 11:42 24.01975 90.12457 4417 ft 325 kts 20°
2026-04-29 11:42 24.03806 90.13784 4220 ft 313 kts 50°
2026-04-29 11:43 24.04994 90.15718 4026 ft 301 kts 69°
2026-04-29 11:43 24.05405 90.17875 3870 ft 284 kts 94°
2026-04-29 11:43 24.05283 90.19981 3749 ft 273 kts 99°
2026-04-29 11:43 24.04945 90.21972 3633 ft 259 kts 114°
2026-04-29 11:44 24.04136 90.23656 3571 ft 242 kts 131°
2026-04-29 11:44 24.03011 90.24919 3574 ft 223 kts 146°
2026-04-29 11:44 24.01800 90.25886 3570 ft 208 kts 147°
2026-04-29 11:44 24.00675 90.26783 3538 ft 193 kts 148°
2026-04-29 11:45 23.99620 90.27623 3358 ft 183 kts 148°
2026-04-29 11:45 23.98611 90.28426 3147 ft 176 kts 148°
2026-04-29 11:45 23.97635 90.29203 2917 ft 171 kts 148°
2026-04-29 11:45 23.96691 90.29954 2713 ft 165 kts 148°
2026-04-29 11:46 23.95777 90.30682 2499 ft 160 kts 148°
2026-04-29 11:46 23.94897 90.31382 2319 ft 151 kts 148°
2026-04-29 11:46 23.94074 90.32038 2114 ft 143 kts 147°
2026-04-29 11:46 23.93276 90.32672 1931 ft 141 kts 147°
2026-04-29 11:47 23.92488 90.33298 1748 ft 139 kts 147°
2026-04-29 11:47 23.91705 90.33920 1571 ft 139 kts 146°
2026-04-29 11:47 23.90924 90.34541 1390 ft 138 kts 145°
2026-04-29 11:47 23.90145 90.35160 1139 ft 139 kts 145°
2026-04-29 11:48 23.89364 90.35781 959 ft 138 kts 145°
2026-04-29 11:48 23.88588 90.36398 782 ft 138 kts 144°
2026-04-29 11:48 23.87822 90.37007 608 ft 139 kts 143°
2026-04-29 11:48 23.87032 90.37633 436 ft 140 kts 143°
2026-04-29 11:49 23.86251 90.38260 246 ft 138 kts 143°
2026-04-29 11:49 23.85481 90.38873 59 ft 136 kts 144°
2026-04-29 11:49 23.84805 90.39404 40 ft 98 kts 143°
2026-04-29 11:49 23.84348 90.39768 36 ft 67 kts 144°
2026-04-29 11:50 23.84057 90.40070 37 ft 44 kts 116°
2026-04-29 11:50 23.84002 90.40338 36 ft 28 kts 82°
2026-04-29 11:50 23.84065 90.40496 36 ft 22 kts 46°
2026-04-29 11:50 23.84150 90.40576 36 ft 15 kts
2026-04-29 11:51 23.84239 90.40524 36 ft 14 kts 333°
2026-04-29 11:51 23.84317 90.40585 36 ft 16 kts 53°
2026-04-29 11:51 23.84411 90.40574 35 ft 17 kts 323°
2026-04-29 11:51 23.84515 90.40492 36 ft 19 kts 324°
2026-04-29 11:52 23.84593 90.40466 36 ft 12 kts 37°
2026-04-29 11:52 23.84622 90.40505 36 ft 2 kts 53°
2026-04-29 11:52 23.84633 90.40521 34 ft 0 kts 53°
2026-04-29 11:52 23.84634 90.40522 34 ft 0 kts 53°